Weather in Sievierodonetsk

Ukraine / Luhansk Region     48˚57′11″N   38˚29′25″E
temp.,
°C
wind,
m/s
gust,
m/s
humid.,
%
clouds,
%
prec.,
mm/h
press.,
hPa
HPBL,
m
3 december, thu
thu323:00−2˚ese61179100 0.0 1032553
02:00−2˚ese61080100 0.0 1032528
05:00−2˚ese61167100 0.0 1032550
08:00−2˚ese71163100 0.0 1032503
11:00−1˚ese7116299 0.0 1032525
14:00ese6106798 0.0 1031617
17:00ese61170100 0.1 1031639
20:00−1˚ese61063100 0.1 1031603
4 december, fri
fri423:00−2˚ese596081 0.0 1032530
02:00−2˚ese6106180 0.0 1032516
05:00−2˚ese6969100 0.0 1031483
08:00−2˚ese51072100 0.0 1032459
11:00−1˚ese61073100 0.0 1031474
14:00−1˚ese61074100 0.0 1032533
17:00−1˚ese61075100 0.0 1032548
20:00−1˚ese61167100 0.0 1033584
5 december, sat
sat523:00−1˚ese61054100 0.0 1033539
02:00−2˚ese6105699 0.0 1034482
05:00−3˚e6105890 0.0 1033434
08:00−3˚e6115345 0.0 1034447
11:00−2˚ese610440 0.0 1034497
14:00−1˚e610380 0.0 1034538
17:00−2˚e612440 0.0 1035497
20:00−3˚e612470 0.0 1036458
6 december, sun
sun623:00−3˚e610430 0.0 1036422
02:00−4˚e610450 0.0 1037391
05:00−5˚e610520 0.0 1037400
08:00−6˚e610540 0.0 1037406
11:00−4˚e610460 0.0 1037482
14:00−2˚e610540 0.0 1036561
17:00−4˚e611630 0.0 1036552
20:00−5˚e711640 0.0 1038529
7 december, mon
mon723:00−6˚e611570 0.0 1038516
02:00−6˚e612660 0.0 1038473
05:00−7˚e611660 0.0 1037468
08:00−7˚e712640 0.0 1038463
11:00−4˚e711530 0.0 1038537
14:00−3˚e712460 0.0 1037576
17:00−4˚e712500 0.0 1037533
20:00−5˚e612580 0.0 1037476